Regional Weather Roundup
Issued by NWS Melbourne, FL

Current Version | Previous Version | Text Only | Print | Product List | Glossary On
Versions: 1 2 3 4 5 6 7 8 9 10 11 12 13 14 15 16 17 18 19 20 21 22 23 24 25 26 27
000
ASUS42 KMLB 181707
RWRMLB
HOURLY WEATHER ROUNDUP AROUND FLORIDA
NATIONAL WEATHER SERVICE OFFICE MELBOURNE FL
100 PM EDT MON JUN 18 2018

CITY           SKY/WX    TMP DP  RH WIND       PRES   REMARKS
MELBOURNE      FAIR      88  74  63 E8        30.12F
FORT PIERCE    FAIR      86  76  71 E13       30.12S
ORLANDO INTL   FAIR      89  73  59 E8        30.12F
DAYTONA BEACH  FAIR      86  77  74 E8G18     30.14F
VERO BEACH     FAIR      87  74  64 E10       30.12F
$$
...ELSEWHERE ACROSS CENTRAL FLORIDA...

CITY           SKY/WX    TMP DP  RH WIND       PRES   REMARKS
PATRICK AFB    FAIR      85  77  76 E8        30.13S
KSC            PTSUNNY  N/A N/A N/A E7          N/A
CAPE CANAVERAL FAIR      86  74  67 SE12      30.12F
TITUSVILLE     MOSUNNY  N/A N/A N/A E7        30.14S
ORLANDO EXEC   PTSUNNY   88  71  57 E8        30.12F
LEESBURG       PTSUNNY   87  75  67 SE5       30.13F
SANFORD        FAIR      89  73  59 E9        30.12F
DELAND         FAIR      88  73  62 E8        30.12F
NEW SMYRNA BCH MOSUNNY   86  75  70 E12       30.15F
ORMOND BEACH   MOSUNNY   84  73  70 E12       30.13F
WINTER HAVEN   FAIR      89  71  55 NE7       30.13F
KISSIMMEE      PTSUNNY   88  73  61 E8G22     30.13F
OKEECHOBEE     PTSUNNY   88  72  58 E5        30.10F
TAMPA          PTSUNNY   88  72  58 SW5G16    30.12F
$$
...NORTHERN FLORIDA...

CITY           SKY/WX    TMP DP  RH WIND       PRES   REMARKS
PALM COAST     PTSUNNY   86  73  66 E10       30.13F
ST AUGUSTINE   FAIR      85  75  72 SE10      30.14F
OCALA          PTSUNNY   89  73  59 VRB5      30.13F
GAINESVILLE    FAIR      90  73  57 SE5       30.15F HX  98
JACKSONVILLE   FAIR      89  72  56 CALM      30.11F
TALLAHASSEE    FAIR      91  72  53 CALM      30.13F HX  98
$$
...ALONG THE SOUTHEAST COAST TO THE KEYS...

CITY           SKY/WX    TMP DP  RH WIND       PRES   REMARKS
STUART         PTSUNNY   86  75  70 E6        30.13
WEST PALM BCH  PTSUNNY   87  74  64 NE9       30.11F
MIAMI          PTSUNNY   87  73  62 NE3       30.09F THUNDER
KEY WEST       TSTM      78  78 100 N5        30.10S FOG
$$
...MARINE REPORTS...

STATION/POSITION TIME  TEMP    WIND        PRES    WAVE   SWELL
                       AIR SEA DIR/SP/G            HT/PER HT/PER
                 (UTC) (F)     (DEG/KT/KT) (MB)    (FT/S) (FT/S)
ST AUGUSTINE FP  1700   81 78  120/  6/  7 1021.1F
20NM E CAPE CANA 1650   82 84   80/ 10/ 12 1020.5F   2/ 9   2/ 9
TRIDENT PIER     1648   84 84   90/  8/ 11 1022.0F
SEBASTIAN INLET  1645   81 83   50/  8     1021.0S
4NM E PORT CANAV 1653      83                N/A     1/ 8
6NM NE FPR INLET 1630      82                N/A     1/ 9
SETTLEMENT PT GB 1700   81      70/  7/  8 1019.7F
$$




USA.gov is the U.S. government's official web portal to all federal, state and local government web resources and services.